Weather History for CWWL - January, 2013

Change the Weather History Date:

Sunday, January 27, 2013

  Actual Average Record
Temperature  
Mean Temperature 40 °F -  
Max Temperature 42 °F - - ()
Min Temperature 36 °F - - ()
Degree Days  
Heating Degree Days 26    
Moisture  
Dew Point 33 °F    
Average Humidity 76    
Maximum Humidity 89    
Minimum Humidity 55    
Precipitation  
Precipitation 0.04 in - - ()
Sea Level Pressure  
Sea Level Pressure 29.89 in    
Wind  
Wind Speed 14 mph ()    
Max Wind Speed 25 mph    
Max Gust Speed 29 mph    
T = Trace of Precipitation, MM = Missing Value Source: Averaged Metar Reports

Daily Weather History Graph

Daily Weather History Graph

Search for Another Location

Airport or City:

Trip Planner

Search our weather history database for the weather conditions in past years. The results will help you decide how hot, cold, wet, or windy it might be!

Date:

Astronomy

Jan. 27, 2013 Rise Set
Actual Time 8:34 AM PST 5:16 PM PST
Civil Twilight 7:56 AM PST 5:55 PM PST
Nautical Twilight 7:13 AM PST 6:38 PM PST
Astronomical Twilight 6:32 AM PST 7:19 PM PST
Moon 6:34 PM PST (1/27) 8:17 AM PST (1/27)
Length of Visible Light 9h 59m
Length of Day
8h 41m
Full, 100% of the Moon is Illuminated
Jan 27
Full
Feb 3
Last Quarter
Feb 9
New
Feb 17
First Quarter
Feb 25
Full

Hourly Weather History & Observations

Time (PST) Temp. Windchill Dew Point Humidity Pressure Visibility Wind Dir Wind Speed Gust Speed Precip Events Conditions
12:00 AM 42.6 °F 37.8 °F 36.1 °F 78% 29.83 in - SW 8.1 mph - N/A   Unknown
3:00 AM 40.1 °F 32.0 °F 36.0 °F 85% 29.81 in - WSW 15.0 mph - N/A   Unknown
4:00 AM 40 °F - 37 °F 83% 29.81 in - SW 13.8 mph - -  
4:00 AM 40.1 °F 32.4 °F 36.7 °F 88% 29.81 in - SW 13.8 mph - N/A   Unknown
5:00 AM 39.6 °F 31.7 °F 35.6 °F 86% 29.81 in - West 13.8 mph - 0.04 in   Unknown
6:00 AM 40.3 °F 34.9 °F 36.9 °F 88% 29.81 in - WNW 8.1 mph - N/A   Unknown
7:00 AM 41.0 °F 33.1 °F 35.1 °F 79% 29.81 in - NW 15.0 mph - N/A   Unknown
8:00 AM 41.5 °F 33.8 °F 35.6 °F 79% 29.83 in - WNW 15.0 mph 20.7 mph N/A   Unknown
9:00 AM 41.5 °F 32.4 °F 32.9 °F 71% 29.83 in - NNW 20.7 mph - N/A   Unknown
10:00 AM 41 °F - 34 °F 67% 29.85 in - NW 19.6 mph - -  
10:00 AM 41.4 °F 32.4 °F 33.8 °F 74% 29.85 in - NW 19.6 mph - N/A   Unknown
11:00 AM 41.5 °F 32.9 °F 33.3 °F 72% 29.88 in - NW 18.4 mph - N/A   Unknown
12:00 PM 40.6 °F 30.2 °F 32.9 °F 74% 29.89 in - NW 25.3 mph - N/A   Unknown
1:00 PM 40.5 °F 30.4 °F 31.3 °F 70% 29.90 in - NW 23.0 mph 28.8 mph N/A   Unknown
2:00 PM 40.1 °F 31.0 °F 34.5 °F 80% 29.90 in - NW 18.4 mph 26.5 mph N/A   Unknown
3:00 PM 40.6 °F 30.4 °F 31.3 °F 69% 29.93 in - NW 24.2 mph - N/A   Unknown
4:00 PM 40 °F - 29 °F 55% 29.94 in - NW 24.2 mph - -  
4:00 PM 40.5 °F 30.2 °F 29.5 °F 65% 29.94 in - NW 24.2 mph - N/A   Unknown
5:00 PM 40.3 °F 30.7 °F 30.9 °F 69% 29.95 in - NNW 20.7 mph 27.6 mph N/A   Unknown
6:00 PM 39.7 °F 30.3 °F 31.3 °F 72% 29.95 in - NW 19.6 mph - N/A   Unknown
7:00 PM 38.1 °F 30.7 °F 32.9 °F 81% 29.95 in - NNW 11.5 mph 20.7 mph N/A   Unknown
8:00 PM 39.2 °F 30.8 °F 32.0 °F 75% 29.96 in - NW 15.0 mph - N/A   Unknown
9:00 PM 38.3 °F 29.7 °F 32.0 °F 78% 29.96 in - WNW 15.0 mph - N/A   Unknown
10:00 PM 37 °F - 33 °F 79% 29.96 in - WNW 12.7 mph - -  
10:00 PM 37.2 °F 29.1 °F 31.3 °F 79% 29.96 in - WNW 12.7 mph - N/A   Unknown
11:00 PM 36.9 °F 29.6 °F 34.0 °F 89% 29.96 in - West 10.4 mph - N/A   Unknown